Weather reports worldwide

Advertisment
Ouessant, France (7100): temperature & dewpoint: 16.01.2019 04:00:00 - 22.01.2019 04:00:00 (CET)Ouessant, France (7100): wind speed & gusts: 16.01.2019 04:00:00 - 22.01.2019 04:00:00 (CET)Ouessant, France (7100): wind direction: 16.01.2019 04:00:00 - 22.01.2019 04:00:00 (CET)Ouessant, France (7100): reduced air pressure: 16.01.2019 04:00:00 - 22.01.2019 04:00:00 (CET)Ouessant, France (7100): visibility: 16.01.2019 04:00:00 - 22.01.2019 04:00:00 (CET)Ouessant, France (7100): precipitation: 16.01.2019 04:00:00 - 22.01.2019 04:00:00 (CET)
Date & Time tt [°C] td [°C] ff [km/h] ff [kn] fx [km/h] fx [kn] dd ppp [hPa] vv [km] rr [mm]
22.01.2019 04:00:00 7,9 2,6 44 24 73 39 NW 1011,5 18 0,0
22.01.2019 03:00:00 8,2 3,0 52 28 72 39 NNW 1011,6 - 0,0
22.01.2019 02:00:00 7,2 5,3 44 24 - - NNW 1012,0 - 2,7
22.01.2019 01:00:00 8,7 8,1 37 20 66 36 SW 1011,7 16 1,8
22.01.2019 00:00:00 8,0 6,6 39 21 58 32 WSW 1013,5 - 0,8
21.01.2019 23:00:00 9,0 6,3 38 20 59 32 WSW 1014,8 - 0,0
21.01.2019 22:00:00 8,5 5,8 36 20 50 27 WSW 1016,2 20 0,0
21.01.2019 21:00:00 7,9 6,2 36 19 54 29 WSW 1017,6 - 0,4
21.01.2019 20:00:00 8,3 6,1 27 15 42 23 WSW 1018,5 - 0,0
21.01.2019 19:00:00 7,4 5,9 22 12 42 23 SW 1019,5 18 0,0
21.01.2019 18:00:00 7,8 6,3 18 10 40 22 SW 1020,6 - 0,0
21.01.2019 17:00:00 8,0 6,6 23 13 35 19 SW 1021,2 - 0,6
21.01.2019 16:00:00 8,9 5,8 19 10 32 17 SW 1021,8 18 0,0
21.01.2019 15:00:00 9,5 4,5 16 9 24 13 SW 1022,6 - 0,0
21.01.2019 14:00:00 9,3 6,2 11 6 26 14 WSW 1023,6 - 0,0
21.01.2019 13:00:00 8,4 6,2 21 11 28 15 SSW 1024,4 18 0,0
21.01.2019 12:00:00 7,5 5,6 15 8 19 10 SW 1025,1 - 0,0
21.01.2019 11:00:00 6,5 5,0 17 9 21 11 SSW 1025,3 - 0,0
21.01.2019 10:00:00 6,9 4,9 14 7 17 9 SSW 1025,3 18 0,0
21.01.2019 09:00:00 6,6 4,3 13 7 21 11 S 1025,1 - 0,0
21.01.2019 08:00:00 7,2 4,7 12 7 26 14 SE 1025,2 - 0,0
21.01.2019 07:00:00 7,3 5,4 14 7 21 11 SE 1024,9 18 0,0
21.01.2019 06:00:00 6,9 5,5 10 6 20 11 SE 1024,9 - 0,4
21.01.2019 05:00:00 7,5 6,1 19 11 28 15 E 1025,0 - 1,2
21.01.2019 04:00:00 8,6 5,5 10 5 26 14 NE 1024,9 18 0,0
21.01.2019 03:00:00 8,5 5,1 17 9 31 17 N 1024,6 - 0,0
21.01.2019 02:00:00 8,2 5,1 21 11 32 17 NNE 1024,7 - 0,0
21.01.2019 01:00:00 8,5 5,4 22 12 33 18 NNE 1024,6 18 0,0
21.01.2019 00:00:00 8,4 5,7 27 14 51 27 NE 1024,2 - 0,0
20.01.2019 23:00:00 8,7 5,6 22 12 45 24 N 1023,5 - 0,0
20.01.2019 22:00:00 8,5 5,9 27 15 48 26 NNE 1023,3 18 0,2
20.01.2019 21:00:00 9,0 5,9 27 15 37 20 NNE 1022,7 - 0,0
20.01.2019 20:00:00 8,9 5,8 26 14 36 19 NNE 1021,9 - 0,0
20.01.2019 19:00:00 9,0 5,9 26 14 35 19 NNE 1021,1 18 0,0
20.01.2019 18:00:00 9,1 6,0 20 11 33 18 NNE 1020,3 - 0,0
20.01.2019 17:00:00 8,9 5,6 22 12 41 22 NNE 1019,5 - 0,0
20.01.2019 16:00:00 9,8 6,1 30 16 42 23 N 1018,7 18 0,0
20.01.2019 15:00:00 9,8 6,0 27 15 39 21 N 1018,0 - 0,0
20.01.2019 14:00:00 10,6 6,3 23 12 42 23 NNE 1017,8 - 0,0
20.01.2019 13:00:00 10,0 6,3 21 12 45 25 N 1017,6 - 0,0
20.01.2019 12:00:00 10,4 6,0 24 13 38 21 N 1017,4 - 0,0
20.01.2019 11:00:00 9,7 6,4 24 13 42 23 N 1016,5 - 0,0
20.01.2019 10:00:00 9,6 5,9 27 14 42 23 N 1015,4 - 0,0
20.01.2019 09:00:00 9,2 5,7 27 15 54 29 N 1014,5 - 0,2
20.01.2019 08:00:00 9,4 5,0 23 13 39 21 N 1013,8 - 0,0
20.01.2019 07:00:00 8,9 5,6 28 15 48 26 N 1013,0 - 0,0
20.01.2019 06:00:00 9,3 5,8 30 16 46 25 N 1012,1 - 0,0
20.01.2019 05:00:00 9,7 7,1 26 14 40 22 N 1011,7 - 0,0
20.01.2019 04:00:00 9,0 7,4 18 10 37 20 N 1011,4 18 0,2
20.01.2019 03:00:00 9,4 6,8 20 11 36 20 N 1010,9 - 0,0
20.01.2019 02:00:00 9,4 6,5 24 13 37 20 N 1010,3 - 0,0
20.01.2019 01:00:00 9,2 6,5 24 13 42 23 N 1009,9 18 0,2
20.01.2019 00:00:00 8,8 6,6 23 12 47 25 N 1009,3 - 0,2
19.01.2019 23:00:00 9,2 6,3 22 12 42 23 N 1008,8 - 0,0
19.01.2019 22:00:00 8,7 6,8 22 12 33 18 NNW 1008,3 18 0,0
19.01.2019 21:00:00 8,4 6,5 23 12 36 19 NNW 1007,7 - 0,0
19.01.2019 20:00:00 8,8 6,8 23 12 38 21 NNW 1007,5 - 0,0
19.01.2019 19:00:00 8,7 6,5 20 11 36 20 NNW 1007,0 18 0,0
19.01.2019 18:00:00 9,1 6,5 27 15 46 25 NW 1006,5 - 0,0
19.01.2019 17:00:00 9,4 6,7 25 14 36 20 NW 1006,2 - 0,0
19.01.2019 16:00:00 10,3 7,0 24 13 36 19 WNW 1006,2 18 0,0
19.01.2019 15:00:00 10,6 7,1 23 12 33 18 WNW 1006,2 - 0,0
19.01.2019 14:00:00 10,8 7,3 21 11 29 16 WNW 1006,6 - 0,0
19.01.2019 13:00:00 10,9 7,8 20 11 29 16 W 1007,2 - 0,0
19.01.2019 12:00:00 10,1 7,2 20 11 32 17 WNW 1007,4 - 0,0
19.01.2019 11:00:00 9,5 7,6 25 13 34 19 WNW 1007,3 - 0,0
19.01.2019 10:00:00 9,0 7,1 20 11 31 17 W 1007,1 18 0,0
19.01.2019 09:00:00 8,0 6,1 22 12 30 16 W 1006,9 - 0,0
19.01.2019 08:00:00 7,8 6,4 19 10 29 16 W 1006,9 - 0,0
19.01.2019 07:00:00 7,5 5,8 16 9 33 18 W 1007,0 18 0,0
19.01.2019 06:00:00 8,1 6,7 22 12 34 19 W 1007,0 - 0,0
19.01.2019 05:00:00 8,1 6,7 22 12 49 26 W 1007,4 - 0,0
19.01.2019 04:00:00 8,4 6,4 26 14 37 20 W 1007,7 - 0,0
19.01.2019 03:00:00 8,5 6,8 22 12 32 18 W 1008,0 - 0,0
19.01.2019 02:00:00 8,7 6,1 25 13 34 18 WSW 1008,4 - 0,0
19.01.2019 01:00:00 8,6 6,4 21 12 31 17 WSW 1008,8 18 0,0
19.01.2019 00:00:00 7,7 5,7 23 12 29 16 W 1009,2 - 0,0
18.01.2019 23:00:00 7,9 5,2 22 12 28 15 W 1009,2 - 0,0
18.01.2019 22:00:00 8,1 6,1 20 11 27 15 W 1009,2 18 0,0
18.01.2019 21:00:00 8,2 6,3 18 10 32 17 W 1009,4 - 0,0
18.01.2019 20:00:00 8,5 6,3 18 10 27 15 W 1009,5 - 0,0
18.01.2019 19:00:00 8,4 6,4 18 10 27 14 W 1009,6 16 0,0
18.01.2019 18:00:00 8,4 6,5 19 10 29 16 WSW 1009,5 - 0,0
18.01.2019 17:00:00 9,4 7,0 23 12 31 17 W 1009,3 - 0,0
18.01.2019 16:00:00 10,3 7,5 24 13 32 17 WNW 1009,3 16 0,0
18.01.2019 15:00:00 10,4 9,3 18 10 68 37 W 1009,3 - 5,6
18.01.2019 14:00:00 9,4 8,9 46 25 66 35 S 1009,5 - 1,8
18.01.2019 13:00:00 9,1 8,6 48 26 71 38 S 1010,3 5 2,2
18.01.2019 12:00:00 9,0 8,1 40 22 66 36 S 1011,8 - 1,6
18.01.2019 11:00:00 9,5 7,1 48 26 68 37 S 1011,7 - 0,0
18.01.2019 10:00:00 9,3 6,4 46 25 66 36 S 1012,2 15 0,0
18.01.2019 09:00:00 9,2 6,3 45 24 63 34 S 1012,9 - 0,0
18.01.2019 08:00:00 8,3 5,6 40 22 62 33 S 1013,6 - 0,0
18.01.2019 07:00:00 9,0 4,8 38 21 56 31 S 1014,2 15 0,0
18.01.2019 06:00:00 8,6 3,8 36 19 54 29 S 1015,2 - 0,0
18.01.2019 05:00:00 8,5 4,1 39 21 54 29 S 1015,8 - 0,0
18.01.2019 04:00:00 8,1 3,2 33 18 48 26 S 1016,9 18 0,0
18.01.2019 03:00:00 7,8 2,0 25 14 41 22 S 1017,6 - 0,0
18.01.2019 02:00:00 7,4 1,0 23 12 29 16 S 1018,4 - 0,0
18.01.2019 01:00:00 6,2 0,5 16 9 22 12 SSW 1019,0 - 0,0
18.01.2019 00:00:00 6,2 -0,8 8 5 11 6 S 1019,3 - 0,0
17.01.2019 23:00:00 6,0 -1,4 4 2 12 6 SSW 1019,7 - 0,0
17.01.2019 22:00:00 6,6 -1,1 4 2 15 8 WSW 1020,1 18 0,0
17.01.2019 21:00:00 6,3 -0,9 11 6 17 9 NNW 1020,2 - 0,0
17.01.2019 20:00:00 7,0 -0,7 9 5 - - N 1019,7 - 0,0
17.01.2019 19:00:00 7,1 -0,4 7 4 21 11 N 1019,5 20 0,0
17.01.2019 18:00:00 6,8 -1,1 16 8 24 13 NNW 1019,3 - 0,0
17.01.2019 17:00:00 7,9 -0,8 18 10 36 20 N 1019,2 - 0,0
17.01.2019 16:00:00 8,1 0,1 19 11 40 22 N 1018,6 20 0,0
17.01.2019 15:00:00 8,6 2,8 26 14 48 26 N 1017,9 - 0,0
17.01.2019 14:00:00 9,1 3,1 29 16 53 28 N 1017,8 - 0,0
17.01.2019 13:00:00 9,5 4,9 34 19 55 30 N 1017,7 20 0,0
17.01.2019 12:00:00 9,3 4,1 28 15 73 39 N 1017,0 - 0,0
17.01.2019 11:00:00 8,7 3,9 46 25 70 38 NNW 1016,4 - 0,0
17.01.2019 10:00:00 8,4 4,4 44 24 80 43 NW 1015,3 8 0,0
17.01.2019 09:00:00 8,5 2,9 38 21 66 36 NW 1014,6 - 0,0
17.01.2019 08:00:00 8,7 3,3 42 23 64 35 NNW 1014,2 - 0,0
17.01.2019 07:00:00 8,7 2,9 46 25 70 38 NNW 1013,3 - 0,0
17.01.2019 06:00:00 8,0 4,0 38 21 80 43 NW 1013,1 - 0,0
17.01.2019 05:00:00 8,2 2,4 50 27 70 38 NW 1012,6 - 0,0
17.01.2019 04:00:00 8,2 2,8 52 28 74 40 NNW 1012,1 - 0,0
17.01.2019 03:00:00 8,4 3,6 50 27 94 51 NW 1011,4 - 1,4
17.01.2019 02:00:00 8,1 4,3 46 25 86 47 NW 1011,1 - 0,0
17.01.2019 01:00:00 9,0 3,8 52 28 79 42 NW 1010,4 20 0,0
17.01.2019 00:00:00 8,7 3,1 51 27 80 43 NW 1010,4 - 0,0
16.01.2019 23:00:00 8,9 5,1 50 27 70 38 WNW 1009,7 - 0,0
16.01.2019 22:00:00 8,1 5,2 42 23 75 40 W 1009,8 - 0,0
16.01.2019 21:00:00 8,9 5,1 46 25 65 35 W 1009,6 - 0,0
16.01.2019 20:00:00 8,6 3,6 44 24 57 31 WNW 1009,7 - 0,0
16.01.2019 19:00:00 8,5 4,3 40 21 61 33 NW 1009,6 18 0,0
16.01.2019 18:00:00 8,6 6,2 37 20 64 34 NW 1009,0 - 0,0
16.01.2019 17:00:00 9,0 6,4 31 17 50 27 NW 1008,9 - 0,0
16.01.2019 16:00:00 9,4 6,8 37 20 58 31 NW 1008,4 18 0,0
16.01.2019 15:00:00 9,5 7,6 32 17 50 27 NW 1008,1 - 0,0
16.01.2019 14:00:00 9,7 8,6 34 19 55 30 WNW 1008,3 - 0,4
16.01.2019 13:00:00 12,0 9,2 34 18 48 26 WSW 1008,5 18 0,0
16.01.2019 12:00:00 10,5 9,4 27 14 53 29 WSW 1009,1 - 0,0
16.01.2019 11:00:00 9,3 8,7 36 19 54 29 WSW 1009,4 - 0,8
16.01.2019 10:00:00 10,6 8,2 35 19 51 27 SW 1009,6 17 0,0
16.01.2019 09:00:00 10,4 7,6 34 18 49 26 SW 1009,8 - 0,0
16.01.2019 08:00:00 10,2 7,1 33 18 48 26 SW 1010,2 - 0,0
16.01.2019 07:00:00 9,8 7,2 33 18 51 28 SW 1010,8 18 0,0
16.01.2019 06:00:00 9,3 6,9 32 17 57 31 SW 1011,9 - 0,0
16.01.2019 05:00:00 9,4 7,0 33 18 51 28 SSW 1012,6 - 0,0
16.01.2019 04:00:00 9,8 6,5 37 20 51 28 SW 1013,6 - 0,0

tt = temperature
td = dewpoint
ff = wind speed
fx = gusts
dd = wind direction
ppp = reduced air pressure
vv = visibility
rr = precipitation

Next stations